Zurück zum Katalog

STARLINK-33598

AktivKommunikationVLEO
NORAD 62771·PAYLOAD·🇺🇸 United States

Gestartet Jan 21, 2025 von Vandenberg Space Force Base

Loading…

Nächste Überflüge (nächste 24 Stunden)

TLE

AktuellSource: CelesTrak SupGP

Epoche: Sep 15, 2026, 02:39 UTC

1 62771C 25015P   26258.11090278  .00007428  00000+0  21947-3 0  2581
2 62771  53.1578 159.0176 0001354  77.8530 262.2680 15.34385625    15

Verfolge STARLINK-33598 in Echtzeit mit AllMySat

Download on the App Store